Regional Weather Roundup
Issued by NWS State College, PA

Home | Current Version | Previous Version | Graphics & Text | Print | Product List | Glossary Off
Versions: 1 2 3 4 5 6 7 8 9 10 11 12 13 14 15 16 17 18 19 20 21 22 23 24 25 26 27 28 29 30 31 32 33 34 35 36 37 38 39 40 41 42 43 44 45 46 47 48 49 50

000
ASUS41 KCTP 300910
RWRCTP

REGIONAL WEATHER ROUNDUP
NATIONAL WEATHER SERVICE STATE COLLEGE PA
500 AM EDT THU JUL 30 2015

Note: "fair" indicates few or no clouds below 12,000 feet with no
significant weather and/or obstructions to visibility.

* = STATION THAT DOES NOT REPORT PRECIPITATION /E.G. RAIN...SNOW...ETC/
    THUNDER OR FOG.

PAZ002>004-007>009-013>016-020>023-029>032-301000-
WESTERN PENNSYLVANIA

CITY           SKY/WX    TMP DP  RH WIND       PRES   REMARKS
ERIE           MOCLDY    73  62  68 W7        29.90R
MEADVILLE      LGT RAIN  70  66  87 NW6       29.94R
FRANKLIN*      CLOUDY    70  64  83 W6        29.95R
NEW CASTLE     PTSUNNY   74  67  78 CALM      29.94R
BEAVER COUNTY  NOT AVBL
BUTLER*        CLOUDY    73  72  94 NW6       29.95R
PITTSBURGH INT CLOUDY    77  71  82 W6        29.93R
PITTSBURGH     MOCLDY    75  69  81 W6        29.93R
INDIANA*       CLOUDY    73  72  94 W8        29.96R FOG
LATROBE        NOT AVBL
WASHINGTON CO* NOT AVBL
$$

PAZ004>006-010>012-017>019-024>028-033>037-041-042-045-046-049>053-301000-
CENTRAL PENNSYLVANIA

CITY           SKY/WX    TMP DP  RH WIND       PRES   REMARKS
BRADFORD       LGT RAIN  70  68  93 SW3       29.93F FOG
DUBOIS         LGT RAIN  73  70  90 SW5       29.93S FOG
CLEARFIELD     FOG       68  67  96 CALM      29.92F VSB 1
JOHNSTOWN      CLEAR     71  67  87 SW8       29.98R
ALTOONA        CLEAR     69  66  90 CALM      29.94S
STATE COLLEGE  CLEAR     71  71  97 CALM      29.91S
WILLIAMSPORT   CLEAR     72  68  87 CALM      29.87F
SELINSGROVE    MOCLDY    72  71  97 CALM      29.89S FOG
FT INDIANTOWN  CLOUDY    76  73  91 S1        29.90F
CAPITAL CITY   CLEAR     77  70  79 CALM      29.89S
HARRISBURG     CLOUDY    77  72  84 VRB5      29.89S
YORK           CLEAR     73  70  90 CALM      29.91S
$$

PAZ038>040-043-044-047-048-054-055-060>062-067>071-301000-
EASTERN PENNSYLVANIA

CITY           SKY/WX    TMP DP  RH WIND       PRES   REMARKS
SCRANTON       CLOUDY    77  71  82 SW5       29.91F
MOUNT POCONO     N/A    N/A N/A N/A MISG      29.97F
ALLENTOWN      MOCLDY    75  72  88 CALM      29.91F
QUAKERTOWN*    PTSUNNY   75  73  94 SW6       29.93F
READING        PTCLDY    77  72  84 S5        29.89F
LANCASTER      CLOUDY    75  72  90 CALM      29.91S
COATESVILLE    PTSUNNY   73  73 100 CALM      29.93F FOG
POTTSTOWN      MOCLDY    76  74  93 CALM      29.93F
BLUE BELL      CLOUDY    77  73  88 S3        29.91F
DOYLESTOWN     PTCLDY    74  72  93 S5        29.91F
WILLOW GROVE   NOT AVBL
NORTH PHILA    CLOUDY    79  70  74 VRB5      29.93F
PHILADELPHIA   MOCLDY    78  72  81 S8        29.92F
$$


USA.gov is the U.S. government's official web portal to all federal, state and local government web resources and services.